Waarnemingen

Advertentie
Mijn weer
Lannion, Frankrijk (7118): temperatuur & dauwpunt: 06.12.2017 20:00:00 - 12.12.2017 20:00:00 (CET)Lannion, Frankrijk (7118): windsnelheid & windstoten: 06.12.2017 20:00:00 - 12.12.2017 20:00:00 (CET)Lannion, Frankrijk (7118): windrichting: 06.12.2017 20:00:00 - 12.12.2017 20:00:00 (CET)Lannion, Frankrijk (7118): luchtdruk: 06.12.2017 20:00:00 - 12.12.2017 20:00:00 (CET)Lannion, Frankrijk (7118): zicht: 06.12.2017 20:00:00 - 12.12.2017 20:00:00 (CET)Lannion, Frankrijk (7118): neerslag: 06.12.2017 20:00:00 - 12.12.2017 20:00:00 (CET)
Datum & Tijd tt [°C] td [°C] ff [km/u] ff [kn] fx [km/u] fx [kn] dd ppp [hPa] vv [km] rr [mm]
12.12.2017 20:00:00 7,1 3,5 13 7 25 14 Z 1012,6 10 0,0
12.12.2017 19:00:00 6,7 3,7 11 6 17 9 Z 1013,0 10 0,0
12.12.2017 18:00:00 6,9 4,0 8 4 17 9 Z 1012,2 10 0,0
12.12.2017 17:00:00 7,2 4,2 12 6 21 11 ZZW 1012,9 59 0,0
12.12.2017 16:00:00 7,5 4,1 15 8 29 16 ZZW 1012,9 10 0,0
12.12.2017 15:00:00 7,6 4,4 13 7 21 12 ZW 1012,8 60 0,2
12.12.2017 14:00:00 7,8 4,0 15 8 23 13 ZW 1012,7 10 0,0
12.12.2017 13:00:00 7,7 4,5 13 7 21 11 ZZW 1012,9 10 0,0
12.12.2017 12:00:00 6,4 4,1 5 3 26 14 WZW 1013,3 10 0,0
12.12.2017 11:00:00 5,4 3,6 11 6 18 10 ZZW 1012,2 10 0,0
12.12.2017 10:00:00 3,3 2,6 8 4 12 7 Z 1011,9 10 0,0
12.12.2017 09:00:00 2,9 2,0 8 4 14 7 Z 1011,1 10 0,4
12.12.2017 08:00:00 3,7 2,8 9 5 16 8 ZZW 1010,2 9 0,2
12.12.2017 07:00:00 3,4 2,4 8 4 19 10 ZZW 1009,3 10 0,4
12.12.2017 06:00:00 3,8 2,5 11 6 31 17 Z 1008,5 10 2,6
12.12.2017 05:00:00 4,5 3,5 10 6 24 13 WZW 1007,6 59 0,0
12.12.2017 04:00:00 4,1 3,1 13 7 25 13 ZZW 1006,8 10 0,4
12.12.2017 03:00:00 3,4 2,4 11 6 18 10 Z 1005,8 10 0,6
12.12.2017 02:00:00 3,6 2,3 8 4 20 11 WZW 1004,8 5 1,6
12.12.2017 01:00:00 4,0 1,5 15 8 19 11 ZW 1003,9 60 1,0
12.12.2017 00:00:00 3,8 1,8 8 4 31 17 W 1003,2 10 1,4
11.12.2017 23:00:00 3,8 -0,6 8 4 25 13 WNW 1002,5 10 0,0
11.12.2017 22:00:00 3,5 -3,1 5 3 18 10 NW 1001,7 10 0,0
11.12.2017 21:00:00 4,0 -2,0 9 5 23 12 NW 1000,0 10 0,0
11.12.2017 20:00:00 4,8 -1,2 13 7 28 15 NNW 998,6 10 0,0
11.12.2017 19:00:00 5,1 -0,7 15 8 37 20 NNW 997,0 10 0,0
11.12.2017 18:00:00 5,6 -0,3 21 11 51 28 NNW 995,1 10 0,0
11.12.2017 17:00:00 5,8 1,1 26 14 53 29 NNW 992,9 10 0,2
11.12.2017 16:00:00 5,5 2,5 31 17 67 36 NNW 990,9 10 0,8
11.12.2017 15:00:00 5,4 3,1 28 15 62 34 NNW 988,8 10 0,6
11.12.2017 14:00:00 5,6 2,8 34 18 66 35 NNW 987,0 10 0,2
11.12.2017 13:00:00 5,4 3,2 34 18 74 40 N 985,1 10 0,8
11.12.2017 12:00:00 5,5 3,8 34 18 63 34 NNW 983,2 7 1,2
11.12.2017 11:00:00 5,6 3,8 31 17 63 34 NNW 981,2 10 0,8
11.12.2017 10:00:00 5,8 3,8 34 18 61 33 NNW 978,8 10 0,6
11.12.2017 09:00:00 6,0 4,2 31 17 65 35 N 976,3 10 2,8
11.12.2017 08:00:00 6,0 4,5 35 19 77 41 N 973,8 3,0 4,5
11.12.2017 07:00:00 6,2 4,7 28 15 61 33 N 971,2 5 4,8
11.12.2017 06:00:00 6,0 4,0 34 18 62 34 N 969,6 7 2,8
11.12.2017 05:00:00 5,5 3,5 29 16 64 34 NNO 969,1 5 4,9
11.12.2017 04:00:00 6,0 4,0 21 11 45 24 NNO 969,8 6 3,2
11.12.2017 03:00:00 6,1 3,4 16 9 47 26 NO 970,6 9 0,8
11.12.2017 02:00:00 6,6 4,6 8 4 29 15 NO 972,7 10 0,0
11.12.2017 01:00:00 6,1 3,6 9 5 18 10 O 974,6 10 0,0
11.12.2017 00:00:00 5,0 4,1 8 4 13 7 O 976,7 10 0,0
10.12.2017 23:00:00 4,6 3,6 8 4 13 7 OZO 978,0 10 0,0
10.12.2017 22:00:00 4,4 3,5 11 6 14 8 OZO 979,1 10 0,0
10.12.2017 21:00:00 4,7 3,4 9 5 16 8 ZZO 980,6 10 0,0
10.12.2017 20:00:00 5,5 3,8 11 6 20 11 Z 981,9 10 0,0
10.12.2017 19:00:00 6,0 4,0 13 7 33 18 ZZW 982,4 10 0,2
10.12.2017 18:00:00 7,8 4,9 22 12 38 21 WZW 983,3 10 0,2
10.12.2017 17:00:00 7,9 5,5 22 12 46 25 ZW 983,9 10 0,2
10.12.2017 16:00:00 7,7 4,1 31 17 60 33 W 984,2 10 0,0
10.12.2017 15:00:00 8,3 6,6 26 14 40 22 WZW 985,0 10 0,0
10.12.2017 14:00:00 6,6 4,8 30 16 69 38 W 985,8 19 2,0
10.12.2017 13:00:00 8,6 6,6 26 14 63 34 ZW 986,6 10 0,6
10.12.2017 12:00:00 8,2 6,0 39 21 76 41 WZW 987,6 10 0,4
10.12.2017 11:00:00 10,4 5,2 42 23 90 49 WZW 988,5 10 0,0
10.12.2017 10:00:00 10,0 5,2 47 26 85 46 W 988,7 10 0,0
10.12.2017 09:00:00 10,1 5,5 46 25 90 48 W 988,7 10 0,0
10.12.2017 08:00:00 9,8 5,8 50 27 87 47 W 988,7 10 1,0
10.12.2017 07:00:00 11,3 8,9 52 28 82 44 W 988,2 10 0,2
10.12.2017 06:00:00 10,5 9,4 28 15 90 49 WZW 988,8 8 2,4
10.12.2017 05:00:00 13,0 12,4 37 20 63 34 ZW 989,7 3,8 1,6
10.12.2017 04:00:00 12,5 12,2 26 14 39 21 ZW 991,8 10 1,2
10.12.2017 03:00:00 10,3 10,0 18 10 29 16 ZZW 994,1 9 3,2
10.12.2017 02:00:00 7,9 7,5 18 10 33 18 ZZO 996,4 8 0,8
10.12.2017 01:00:00 6,6 6,0 16 9 32 18 ZO 999,0 8 0,4
10.12.2017 00:00:00 5,4 4,8 22 12 37 20 ZO 1001,2 10 0,4
09.12.2017 23:00:00 5,3 4,6 24 13 45 25 OZO 1003,7 10 0,5
09.12.2017 22:00:00 4,9 4,3 16 9 28 15 O 1005,8 10 1,2
09.12.2017 21:00:00 4,6 4,0 18 10 26 14 OZO 1008,6 6 1,6
09.12.2017 20:00:00 4,7 4,0 15 8 22 12 OZO 1010,2 7 1,8
09.12.2017 19:00:00 4,7 3,8 11 6 17 9 ZO 1011,8 10 -
09.12.2017 18:00:00 4,8 3,6 9 5 18 10 ZO 1013,0 10 0,2
09.12.2017 17:00:00 5,1 3,4 8 4 16 9 ZZO 1014,3 10 0,4
09.12.2017 16:00:00 5,2 2,7 9 5 23 12 Z 1015,4 36 0,0
09.12.2017 15:00:00 5,9 3,1 9 5 20 11 Z 1016,9 10 0,0
09.12.2017 14:00:00 5,7 3,5 8 4 19 10 Z 1018,7 10 0,0
09.12.2017 13:00:00 5,1 3,9 9 5 14 8 ZZO 1020,0 10 0,0
09.12.2017 12:00:00 4,8 3,6 9 5 11 6 ZO 1021,2 10 1,2
09.12.2017 11:00:00 4,2 3,3 5 3 15 8 ZZO 1022,1 10 0,0
09.12.2017 10:00:00 3,7 2,8 10 6 18 10 ZZO 1022,6 41 0,0
09.12.2017 09:00:00 3,9 2,6 10 5 14 8 ZO 1023,1 51 0,0
09.12.2017 08:00:00 3,8 2,3 5 3 26 14 ZW 1023,3 10 0,6
09.12.2017 07:00:00 4,4 2,1 16 9 35 19 WZW 1023,6 10 1,4
09.12.2017 06:00:00 5,4 1,9 8 4 25 13 NW 1023,7 10 0,0
09.12.2017 05:00:00 4,6 0,2 13 7 39 21 WNW 1023,9 10 0,0
09.12.2017 04:00:00 6,4 1,1 21 11 41 22 WNW 1024,3 10 0,0
09.12.2017 03:00:00 4,7 1,2 34 18 54 29 W 1024,8 10 0,2
09.12.2017 02:00:00 6,4 -0,6 15 8 44 24 WNW 1024,8 10 0,0
09.12.2017 01:00:00 5,8 -0,3 21 11 50 27 WNW 1025,1 10 0,0
09.12.2017 00:00:00 6,0 0,7 21 11 42 23 WNW 1025,4 10 0,0
08.12.2017 23:00:00 6,7 -0,3 21 11 39 21 WNW 1025,6 10 0,0
08.12.2017 22:00:00 6,2 -0,5 18 10 45 24 NW 1025,9 10 0,0
08.12.2017 21:00:00 6,3 -0,2 18 10 44 24 NNW 1026,1 10 0,2
08.12.2017 20:00:00 6,0 -0,1 22 12 41 22 NNW 1026,0 53 0,0
08.12.2017 19:00:00 5,9 -1,7 22 12 65 35 NW 1025,7 10 0,0
08.12.2017 18:00:00 6,4 -1,5 21 11 46 25 NW 1025,4 10 0,0
08.12.2017 17:00:00 6,6 -1,1 24 13 50 27 WNW 1025,0 10 0,0
08.12.2017 16:00:00 6,6 -1,6 24 13 53 29 WNW 1024,8 10 0,0
08.12.2017 15:00:00 7,1 -1,8 26 14 57 31 WNW 1024,9 10 0,2
08.12.2017 14:00:00 6,0 -0,5 26 14 56 31 NW 1025,0 10 0,0
08.12.2017 13:00:00 6,8 -0,2 29 16 54 29 WNW 1024,9 10 0,4
08.12.2017 12:00:00 7,6 0,8 24 13 63 34 NW 1025,2 10 0,0
08.12.2017 11:00:00 6,2 -1,7 31 17 63 34 WNW 1025,0 10 0,2
08.12.2017 10:00:00 5,0 0,6 31 17 68 37 WNW 1024,4 10 0,2
08.12.2017 09:00:00 6,1 0,0 28 15 61 33 WNW 1023,3 10 0,2
08.12.2017 08:00:00 6,5 0,8 22 12 59 32 WNW 1022,7 10 0,0
08.12.2017 07:00:00 7,2 -0,3 26 14 55 30 WNW 1022,1 10 0,0
08.12.2017 06:00:00 7,1 -0,9 31 17 52 28 NW 1021,8 10 0,2
08.12.2017 05:00:00 5,8 2,1 29 16 50 27 WNW 1022,0 7 0,2
08.12.2017 04:00:00 6,4 2,1 24 13 46 25 NW 1021,8 10 0,0
08.12.2017 03:00:00 6,2 2,5 22 12 62 34 WNW 1021,4 10 0,2
08.12.2017 02:00:00 7,6 3,1 25 13 42 23 WNW 1020,8 20 0,0
08.12.2017 01:00:00 8,0 2,4 18 10 42 23 WNW 1020,8 10 0,0
08.12.2017 00:00:00 8,1 2,7 19 10 43 23 WNW 1020,3 19 0,2
07.12.2017 23:00:00 7,8 3,5 11 6 41 22 WNW 1020,2 10 0,0
07.12.2017 22:00:00 8,9 2,0 18 10 51 28 WNW 1020,1 10 0,0
07.12.2017 21:00:00 9,4 4,2 26 14 39 21 WNW 1020,0 10 0,0
07.12.2017 20:00:00 9,4 3,8 22 12 36 20 NW 1019,6 10 0,0
07.12.2017 19:00:00 9,3 3,3 21 11 35 19 NW 1018,7 10 0,0
07.12.2017 18:00:00 9,0 3,6 21 11 38 20 NW 1018,2 18 0,0
07.12.2017 17:00:00 8,6 3,8 11 6 41 22 WNW 1017,0 10 0,0
07.12.2017 16:00:00 9,5 5,1 21 11 39 21 WNW 1016,6 10 0,0
07.12.2017 15:00:00 9,8 7,0 24 13 44 24 WNW 1016,0 6 0,0
07.12.2017 14:00:00 10,4 9,6 28 15 52 28 WNW 1015,3 4,8 0,2
07.12.2017 13:00:00 11,2 10,6 33 18 61 33 W 1014,6 7 0,2
07.12.2017 12:00:00 11,7 11,1 42 23 64 35 W 1014,2 2,4 0,6
07.12.2017 11:00:00 12,9 12,3 28 15 43 23 ZW 1013,5 2,0 0,4
07.12.2017 10:00:00 13,1 12,0 29 16 48 26 ZW 1013,5 10 0,0
07.12.2017 09:00:00 13,0 11,7 22 12 44 24 ZZW 1013,7 20 0,4
07.12.2017 08:00:00 13,1 12,5 24 13 46 25 ZZW 1014,4 3,8 1,2
07.12.2017 07:00:00 12,4 11,5 21 11 42 23 Z 1014,7 8 0,4
07.12.2017 06:00:00 12,2 10,9 26 14 50 27 Z 1015,7 10 0,0
07.12.2017 05:00:00 11,7 9,9 22 12 47 26 Z 1016,7 10 0,0
07.12.2017 04:00:00 11,5 9,2 26 14 49 26 Z 1017,9 31 0,0
07.12.2017 03:00:00 11,2 8,6 26 14 51 28 Z 1018,8 28 0,0
07.12.2017 02:00:00 10,4 8,3 21 11 46 25 Z 1020,1 10 0,0
07.12.2017 01:00:00 10,1 7,3 28 15 48 26 Z 1021,4 10 0,0
07.12.2017 00:00:00 9,8 6,9 26 14 48 26 Z 1022,6 10 0,0
06.12.2017 23:00:00 9,2 6,6 22 12 37 20 Z 1023,3 10 0,2
06.12.2017 22:00:00 8,9 5,8 18 10 36 19 Z 1024,3 10 0,0
06.12.2017 21:00:00 7,9 5,4 17 9 28 15 ZZO 1025,1 31 0,0
06.12.2017 20:00:00 7,5 5,1 15 8 29 16 ZZO 1026,0 10 0,0

tt = temperatuur
td = dauwpunt
ff = windsnelheid
fx = windstoten
dd = windrichting
ppp = luchtdruk
vv = zicht
rr = neerslag

Weerstations in de omgeving